Home   Weather   Daegu   Past weeks

Flag for South Korea Past Weather in Daegu, South Korea — Yesterday and Last 2 Weeks

Now
66 °F

Passing clouds.


Feels Like: 66 °F
Forecast: 52 / 68 °F
Wind: 5 mph from North

Location: Taegu Ab

Current Time: Apr 25, 2017 at 11:49:54 pm

Latest Report: Apr 25, 2017 at 11:00 pm


Visibility: N/A

Pressure: 30.04 "Hg

Humidity: 64%

Dew Point: 54 °F

Location of DaeguLocation

Past Weather in Daegu — Graph

°F

Daegu Temperature Yesterday

Maximum temperature yesterday: 75 °F (at 2:00 pm)
Minimum temperature yesterday: 46 °F (at 5:00 am)
Average temperature yesterday: 62 °F

High & Low Weather Summary for the Past Weeks

 TemperatureHumidityPressure
High82 °F (Apr 16, 4:00 pm)94% (Apr 11, 1:40 am)30.12 "Hg (Apr 11, 1:40 am)
Low41 °F (Apr 13, 6:00 am)12% (Apr 16, 6:00 pm)29.27 "Hg (Apr 17, 7:33 pm)
Average60 °F54%29.83 "Hg
* Reported Apr 10 10:00 pm — Apr 25 10:00 pm, Daegu, Weather by CustomWeather, © 2017

Note: Actual official high and low records may vary slightly from our data, if they occured in-between our weather recording intervals... More about our weather records

Advertising

Daegu Weather History for the Previous 24 Hours

Scroll right to see more
 ConditionsComfort  
Time TempWeatherWind HumidityBarometerVisibility
10:00 pm
Tue, Apr 25
66 °FPassing clouds.5 mph60%30.04 "HgN/A
9:00 pm68 °FPassing clouds.1 mph60%30.04 "HgN/A
8:00 pm68 °FPassing clouds.2 mph56%30.01 "HgN/A
7:00 pm72 °FPartly sunny.2 mph50%30.01 "HgN/A
6:00 pm73 °FPartly sunny.7 mph44%30.01 "HgN/A
5:00 pm73 °FPartly sunny.7 mph44%30.01 "HgN/A
4:00 pm75 °FPartly sunny.6 mph36%30.01 "HgN/A
3:00 pm75 °FPartly sunny.6 mph34%30.01 "HgN/A
2:00 pm73 °FPartly sunny.6 mph38%30.04 "HgN/A
1:00 pm73 °FPartly sunny.7 mph38%30.04 "HgN/A
12:00 pm72 °FPartly sunny.9 mph41%30.07 "HgN/A
11:00 am70 °FPartly sunny.8 mph53%30.09 "HgN/A
10:00 am66 °FFog.6 mph60%30.09 "Hg3 mi
9:00 am64 °FPartly sunny.7 mph64%30.07 "HgN/A
8:00 am63 °FPartly sunny.2 mph73%30.07 "HgN/A
7:00 am59 °FPartly sunny.1 mph77%30.07 "HgN/A
6:00 am59 °FBroken clouds.1 mph77%30.04 "HgN/A
5:00 am59 °FPassing clouds.3 mph72%30.07 "HgN/A
4:00 am59 °FPassing clouds.2 mph72%30.04 "HgN/A
3:00 am59 °FPassing clouds.1 mph72%30.04 "HgN/A
2:00 am59 °FPassing clouds.1 mph68%30.04 "HgN/A
1:00 am59 °FPassing clouds.2 mph68%30.04 "HgN/A
12:00 am61 °FPassing clouds.2 mph59%30.07 "HgN/A
11:00 pm
Mon, Apr 24
61 °FPassing clouds.5 mph55%30.07 "HgN/A
Weather by CustomWeather, © 2017

See weather overviewHow to use our weather pages